| time (UTC) | temp F | wind direction | speed MPH | gust MPH | rain 1hr in | rain 24hr in | rain mn in | humidity % | barometer mb |
| 20260905043006 | 64 | 288 | 0.0 | 0.0 | 0.00 | 0.00 | 0.00 | 93 | 1015.0 |
| 20260905041510 | 64 | 288 | 0.0 | 0.0 | 0.00 | 0.00 | 0.00 | 93 | 1015.0 |
| 20260905040006 | 65 | 288 | 0.0 | 0.0 | 0.00 | 0.00 | 0.00 | 92 | 1014.9 |
| 20260905034506 | 65 | 288 | 0.0 | 0.0 | 0.00 | 0.00 | 0.00 | 91 | 1014.9 |
| 20260905033001 | 65 | 286 | 0.0 | 0.0 | 0.00 | 0.00 | 0.00 | 91 | 1014.9 |
| 20260905031501 | 65 | 286 | 0.0 | 0.0 | 0.00 | 0.00 | 0.00 | 91 | 1014.9 |
| 20260905024600 | 65 | 275 | 0.0 | 0.0 | 0.00 | 0.00 | 0.00 | 90 | 1014.8 |
| 20260905023105 | 65 | 275 | 0.0 | 1.0 | 0.00 | 0.00 | 0.00 | 89 | 1015.0 |
| 20260905021603 | 66 | 267 | 0.0 | 0.0 | 0.00 | 0.00 | 0.00 | 89 | 1015.0 |
| 20260905020059 | 66 | 267 | 0.0 | 0.0 | 0.00 | 0.00 | 0.00 | 88 | 1015.0 |
| 20260905014602 | 67 | 267 | 0.0 | 0.0 | 0.00 | 0.02 | 0.00 | 87 | 1015.0 |
| 20260905013101 | 67 | 267 | 0.0 | 2.0 | 0.00 | 0.02 | 0.00 | 87 | 1015.1 |
| 20260905011557 | 67 | 258 | 0.0 | 0.0 | 0.00 | 0.02 | 0.00 | 87 | 1015.0 |
| 20260905004603 | 68 | 258 | 0.0 | 0.0 | 0.00 | 0.32 | 0.00 | 85 | 1015.0 |
| 20260905003056 | 68 | 258 | 0.0 | 0.0 | 0.00 | 0.32 | 0.00 | 85 | 1014.8 |
| 20260905001555 | 69 | 258 | 0.0 | 0.0 | 0.00 | 0.32 | 0.00 | 86 | 1014.9 |
| 20260905000056 | 69 | 258 | 0.0 | 0.0 | 0.00 | 0.32 | 0.00 | 87 | 1014.7 |
| 20260904234556 | 69 | 258 | 0.0 | 0.0 | 0.00 | 0.32 | 0.00 | 87 | 1014.8 |
| 20260904233054 | 70 | 258 | 0.0 | 0.0 | 0.00 | 0.32 | 0.00 | 85 | 1014.6 |
| 20260904231556 | 70 | 258 | 0.0 | 0.0 | 0.00 | 0.32 | 0.00 | 84 | 1014.4 |
| 20260904230052 | 71 | 258 | 0.0 | 0.0 | 0.00 | 0.32 | 0.00 | 81 | 1014.3 |
| 20260904224555 | 72 | 258 | 0.0 | 0.0 | 0.00 | 0.32 | 0.00 | 78 | 1014.2 |
| 20260904223055 | 72 | 258 | 0.0 | 2.0 | 0.00 | 0.32 | 0.00 | 76 | 1014.0 |
| 20260904221551 | 72 | 268 | 0.0 | 2.0 | 0.00 | 0.32 | 0.00 | 73 | 1013.9 |
| 20260904220108 | 73 | 293 | 0.0 | 3.0 | 0.00 | 0.32 | 0.00 | 72 | 1013.9 |
| 20260904214549 | 73 | 273 | 0.0 | 4.0 | 0.00 | 0.32 | 0.00 | 72 | 1013.9 |
| 20260904213050 | 73 | 269 | 0.0 | 3.0 | 0.00 | 0.32 | 0.00 | 73 | 1013.9 |
| 20260904211605 | 74 | 269 | 0.0 | 4.0 | 0.00 | 0.32 | 0.00 | 72 | 1014.2 |
| 20260904210049 | 75 | 263 | 0.0 | 7.0 | 0.00 | 0.32 | 0.00 | 71 | 1014.2 |
| 20260904204548 | 75 | 260 | 1.0 | 5.0 | 0.00 | 0.34 | 0.00 | 72 | 1014.4 |
| 20260904203052 | 74 | 286 | 1.0 | 4.0 | 0.00 | 0.34 | 0.00 | 75 | 1014.4 |
| 20260904201645 | 74 | 269 | 1.0 | 4.0 | 0.00 | 0.34 | 0.00 | 73 | 1014.3 |
| 20260904200046 | 75 | 277 | 2.0 | 4.0 | 0.00 | 0.34 | 0.00 | 73 | 1014.5 |
| 20260904194547 | 75 | 106 | 0.0 | 4.0 | 0.00 | 0.34 | 0.00 | 74 | 1014.7 |
| 20260904193043 | 76 | 19 | 1.0 | 5.0 | 0.00 | 0.34 | 0.00 | 74 | 1015.0 |
| 20260904191548 | 76 | 264 | 2.0 | 5.0 | 0.00 | 0.34 | 0.00 | 74 | 1015.0 |
| 20260904190047 | 75 | 279 | 2.0 | 7.0 | 0.00 | 0.34 | 0.00 | 75 | 1015.1 |
| 20260904184551 | 76 | 275 | 0.0 | 6.0 | 0.00 | 0.34 | 0.00 | 74 | 1015.3 |
| 20260904183045 | 75 | 286 | 1.0 | 8.0 | 0.00 | 0.34 | 0.00 | 72 | 1015.3 |
| 20260904181539 | 77 | 279 | 0.0 | 7.0 | 0.00 | 0.34 | 0.00 | 72 | 1015.3 |
| 20260904180034 | 76 | 269 | 2.0 | 7.0 | 0.00 | 0.34 | 0.00 | 73 | 1015.5 |
| 20260904174536 | 74 | 281 | 1.0 | 8.0 | 0.00 | 0.34 | 0.00 | 76 | 1015.6 |
| 20260904173039 | 75 | 270 | 1.0 | 3.0 | 0.00 | 0.34 | 0.00 | 75 | 1015.7 |
| 20260904171529 | 75 | 319 | 1.0 | 6.0 | 0.00 | 0.34 | 0.00 | 73 | 1015.9 |
| 20260904170038 | 74 | 276 | 1.0 | 4.0 | 0.00 | 0.34 | 0.00 | 75 | 1016.1 |
| 20260904164526 | 74 | 269 | 0.0 | 3.0 | 0.00 | 0.34 | 0.00 | 76 | 1016.2 |
| 20260904163026 | 74 | 285 | 0.0 | 9.0 | 0.00 | 0.34 | 0.00 | 73 | 1016.3 |
| 20260904161528 | 73 | 11 | 0.0 | 4.0 | 0.00 | 0.34 | 0.00 | 76 | 1016.1 |
| 20260904160023 | 74 | 360 | 1.0 | 5.0 | 0.00 | 0.34 | 0.00 | 74 | 1016.1 |
| 20260904154526 | 73 | 288 | 0.0 | 6.0 | 0.00 | 0.34 | 0.00 | 75 | 1016.1 |
| 20260904153020 | 73 | 273 | 1.0 | 4.0 | 0.00 | 0.34 | 0.00 | 77 | 1016.0 |
| 20260904151519 | 73 | 280 | 1.0 | 4.0 | 0.00 | 0.34 | 0.00 | 80 | 1016.3 |
| 20260904150027 | 72 | 281 | 0.0 | 2.0 | 0.00 | 0.34 | 0.00 | 81 | 1015.7 |
| 20260904144513 | 71 | 283 | 0.0 | 4.0 | 0.00 | 0.34 | 0.00 | 87 | 1015.9 |
| 20260904143011 | 69 | 87 | 0.0 | 3.0 | 0.00 | 0.34 | 0.00 | 90 | 1015.8 |
| 20260904141507 | 68 | 292 | 0.0 | 2.0 | 0.00 | 0.34 | 0.00 | 96 | 1016.0 |
| 20260904140007 | 66 | 57 | 0.0 | 2.0 | 0.00 | 0.34 | 0.00 | 98 | 1016.1 |
| 20260904134506 | 66 | 53 | 1.0 | 3.0 | 0.00 | 0.34 | 0.00 | 98 | 1016.2 |
| 20260904133009 | 66 | 316 | 0.0 | 1.0 | 0.00 | 0.34 | 0.00 | 98 | 1016.1 |
| 20260904131505 | 65 | 297 | 0.0 | 7.0 | 0.00 | 0.34 | 0.00 | 98 | 1016.2 |
| 20260904130005 | 65 | 40 | 0.0 | 3.0 | 0.00 | 0.34 | 0.00 | 98 | 1016.2 |
| 20260904124504 | 64 | 295 | 0.0 | 3.0 | 0.00 | 0.34 | 0.00 | 98 | 1016.2 |
| 20260904123002 | 63 | 276 | 0.0 | 2.0 | 0.00 | 0.34 | 0.00 | 98 | 1016.1 |
| 20260904121502 | 63 | 280 | 0.0 | 2.0 | 0.00 | 0.34 | 0.00 | 98 | 1015.8 |
| 20260904120002 | 62 | 280 | 0.0 | 1.0 | 0.00 | 0.34 | 0.00 | 98 | 1015.9 |
| 20260904114602 | 62 | 280 | 0.0 | 0.0 | 0.00 | 0.34 | 0.00 | 98 | 1015.8 |
| 20260904113059 | 62 | 280 | 0.0 | 0.0 | 0.00 | 0.34 | 0.00 | 98 | 1015.9 |
| 20260904111557 | 62 | 280 | 0.0 | 0.0 | 0.00 | 0.34 | 0.00 | 98 | 1015.8 |
| 20260904110055 | 62 | 280 | 0.0 | 0.0 | 0.00 | 0.34 | 0.00 | 98 | 1015.6 |
| 20260904104553 | 62 | 280 | 0.0 | 0.0 | 0.00 | 0.34 | 0.00 | 98 | 1015.6 |
| 20260904103053 | 62 | 280 | 0.0 | 0.0 | 0.00 | 0.34 | 0.00 | 98 | 1015.5 |
| 20260904101603 | 62 | 280 | 0.0 | 1.0 | 0.00 | 0.34 | 0.00 | 98 | 1015.2 |
| 20260904100048 | 63 | 280 | 0.0 | 2.0 | 0.00 | 0.34 | 0.00 | 98 | 1015.2 |
| 20260904094551 | 63 | 274 | 0.0 | 3.0 | 0.00 | 0.34 | 0.00 | 98 | 1015.1 |
| 20260904093048 | 63 | 291 | 0.0 | 2.0 | 0.00 | 0.34 | 0.00 | 98 | 1015.1 |
| 20260904091546 | 63 | 289 | 0.0 | 3.0 | 0.00 | 0.34 | 0.00 | 98 | 1015.1 |
| 20260904090046 | 63 | 314 | 0.0 | 3.0 | 0.00 | 0.34 | 0.00 | 98 | 1014.9 |
| 20260904084544 | 63 | 259 | 0.0 | 1.0 | 0.00 | 0.34 | 0.00 | 98 | 1014.9 |
| 20260904083042 | 63 | 305 | 0.0 | 2.0 | 0.00 | 0.34 | 0.00 | 98 | 1014.8 |
| 20260904081541 | 63 | 283 | 0.0 | 2.0 | 0.00 | 0.34 | 0.00 | 98 | 1014.6 |
| 20260904080043 | 63 | 284 | 0.0 | 3.0 | 0.00 | 0.34 | 0.00 | 98 | 1014.4 |
| 20260904074542 | 63 | 285 | 1.0 | 3.0 | 0.00 | 0.34 | 0.00 | 98 | 1014.4 |
| 20260904073041 | 63 | 275 | 0.0 | 2.0 | 0.00 | 0.34 | 0.00 | 98 | 1014.4 |
| 20260904071540 | 63 | 300 | 0.0 | 2.0 | 0.00 | 0.34 | 0.00 | 98 | 1014.3 |
| 20260904070044 | 64 | 327 | 0.0 | 2.0 | 0.00 | 0.34 | 0.00 | 98 | 1014.2 |
| 20260904064541 | 65 | 297 | 0.0 | 3.0 | 0.00 | 0.35 | 0.00 | 98 | 1014.1 |
| 20260904063032 | 66 | 273 | 1.0 | 3.0 | 0.00 | 0.35 | 0.00 | 98 | 1014.2 |
| 20260904061538 | 66 | 287 | 0.0 | 0.0 | 0.00 | 0.35 | 0.00 | 98 | 1014.3 |
| 20260904060046 | 66 | 287 | 0.0 | 1.0 | 0.00 | 0.35 | 0.00 | 98 | 1014.4 |
| 20260904054538 | 66 | 287 | 0.0 | 0.0 | 0.00 | 0.35 | 0.00 | 98 | 1014.5 |
| 20260904053024 | 67 | 287 | 0.0 | 0.0 | 0.00 | 0.35 | 0.00 | 98 | 1014.6 |
| 20260904051522 | 67 | 287 | 0.0 | 1.0 | 0.00 | 0.35 | 0.00 | 98 | 1014.7 |
| 20260904050036 | 68 | 175 | 0.0 | 0.0 | 0.00 | 0.35 | 0.00 | 98 | 1014.8 |
| 20260904044521 | 68 | 175 | 0.0 | 0.0 | 0.00 | 0.35 | 0.00 | 98 | 1014.8 |